Weather in Turunc

Turkey     36°46′20″N   28°14′24″E
temp.,
°C
wind,
m/s
gust,
m/s
humid.,
%
clouds,
%
prec.,
mm/h
press.,
hPa
HPBL,
m
15 august, mon
mon1500:00+24wnw45700 0.0 1005212
03:00+23nw34740 0.0 1005169
06:00+23nw23740 0.0 1005141
09:00+26w22590 0.0 1006512
12:00+29wsw44530 0.0 1007708
15:00+29wsw65540 0.0 1006598
18:00+28w57550 0.0 1007540
21:00+26wnw44630 0.0 1007136
16 august, tue
tue1600:00+24nw23650 0.0 1008103
03:00+24nw23670 0.0 100893
06:00+23nnw22680 0.0 100898
09:00+27nw22520 0.0 1009335
12:00+30wsw33470 0.0 1010485
15:00+31w66440 0.0 1009455
18:00+29w57480 0.0 1008311
21:00+26wnw34600 0.0 100967
17 august, wed
wed1700:00+25nnw33600 0.0 100988
03:00+25nw44600 0.0 1007104
06:00+25nnw33550 0.0 100684
09:00+29nw23450 0.0 1006140
12:00+34w44360 0.0 1006468
15:00+35wsw66350 0.0 1005473
18:00+33w69390 0.0 1004254
21:00+27nne22670 0.0 100522
18 august, thu
thu1800:00+27nw22570 0.0 100519
03:00+27nw55490 0.0 100455
06:00+26nnw45490 0.0 100360
09:00+31nnw33400 0.0 1004161
12:00+34sw32360 0.0 1004714
15:00+34ssw23380 0.0 1003619
18:00+31se33510 0.0 1003198
21:00+28e22620 0.0 100313
19 august, fri
fri1900:00+28nw33470 0.0 100329
03:00+28nnw44460 0.0 100241
06:00+27n33490 0.0 100236
09:00+31nnw23390 0.0 1003163
12:00+34sw21340 0.0 1003761
15:00+36sw54280 0.0 1003803
18:00+33sse23420 0.0 1003256
21:00+27e22680 0.0 100420